FW1657 Weather Reports


Display with metric or nautical units.
time (UTC)temp
F
wind
direction
speed
MPH
gust
MPH
rain 1hr
in
rain 24hr
in
rain mn
in
humidity
%
barometer
mb
20260510021546 52 247 6.0 10.0 0.00 0.00 0.00 80 1012.3
20260510020044 53 253 5.0 10.0 0.00 0.00 0.00 79 1012.4
20260510014543 53 274 5.0 9.0 0.00 0.00 0.00 79 1012.5
20260510013038 53 269 5.0 9.0 0.00 0.00 0.00 78 1012.7
20260510011536 54 260 5.0 9.0 0.00 0.00 0.00 78 1012.7
20260510010033 54 264 4.0 8.0 0.00 0.00 0.00 77 1012.9
20260510004531 54 262 4.0 9.0 0.00 0.00 0.00 76 1012.9
20260510003030 55 273 6.0 9.0 0.00 0.00 0.00 76 1012.9
20260510001528 55 275 4.0 8.0 0.00 0.00 0.00 76 1012.9
20260510000026 55 267 4.0 8.0 0.00 0.00 0.00 75 1013.2
20260509234525 55 268 4.0 8.0 0.00 0.00 0.00 75 1013.3
20260509233025 56 270 4.0 8.0 0.00 0.00 0.00 74 1013.4
20260509231518 56 269 5.0 8.0 0.00 0.00 0.00 73 1013.5
20260509230019 56 287 5.0 9.0 0.00 0.00 0.00 73 1013.5
20260509224513 56 269 4.0 7.0 0.00 0.00 0.00 72 1013.5
20260509223014 57 278 5.0 8.0 0.00 0.00 0.00 70 1013.5
20260509221511 58 268 4.0 9.0 0.00 0.00 0.00 69 1013.6
20260509220005 58 289 5.0 9.0 0.00 0.00 0.00 68 1013.6
20260509214504 58 304 5.0 8.0 0.00 0.00 0.00 68 1013.8
20260509213004 59 281 4.0 9.0 0.00 0.00 0.00 67 1013.9
20260509211503 59 267 4.0 7.0 0.00 0.00 0.00 67 1014.0
20260509210004 59 277 4.0 8.0 0.00 0.00 0.00 66 1014.0
20260509204502 59 272 3.0 5.0 0.00 0.00 0.00 66 1014.1
20260509203001 59 272 4.0 7.0 0.00 0.00 0.00 65 1014.2
20260509201500 59 266 3.0 4.0 0.00 0.00 0.00 64 1014.2
20260509200002 60 265 3.0 5.0 0.00 0.00 0.00 64 1014.0
20260509194600 61 262 2.0 4.0 0.00 0.00 0.00 64 1014.0
20260509193136 62 262 2.0 3.0 0.00 0.00 0.00 63 1013.9
20260509191615 63 262 1.0 3.0 0.00 0.00 0.00 60 1013.9
20260509190106 64 262 1.0 4.0 0.00 0.00 0.00 58 1013.9
20260509184600 65 262 1.0 6.0 0.00 0.00 0.00 56 1013.9
20260509183058 66 263 2.0 5.0 0.00 0.00 0.00 55 1013.9
20260509181601 67 258 3.0 5.0 0.00 0.00 0.00 53 1013.7
20260509180105 67 320 2.0 7.0 0.00 0.00 0.00 50 1013.8
20260509174556 68 283 1.0 4.0 0.00 0.00 0.00 51 1013.7
20260509173103 68 265 2.0 6.0 0.00 0.00 0.00 50 1013.8
20260509171555 69 340 3.0 5.0 0.00 0.00 0.00 48 1013.6
20260509170058 69 321 4.0 7.0 0.00 0.00 0.00 49 1013.8
20260509164601 69 300 3.0 8.0 0.00 0.00 0.00 46 1013.7
20260509163051 70 350 5.0 10.0 0.00 0.00 0.00 48 1013.9
20260509161556 70 309 4.0 9.0 0.00 0.00 0.00 47 1013.8
20260509160050 70 325 5.0 10.0 0.00 0.00 0.00 48 1014.0
20260509154548 70 295 4.0 9.0 0.00 0.00 0.00 47 1014.2
20260509153048 70 356 10.0 13.0 0.00 0.00 0.00 47 1014.1
20260509151547 70 33 1.0 9.0 0.00 0.00 0.00 47 1014.3
20260509150046 70 294 3.0 9.0 0.00 0.00 0.00 47 1014.6
20260509144544 70 315 7.0 11.0 0.00 0.00 0.00 45 1014.7
20260509143043 70 347 5.0 14.0 0.00 0.00 0.00 47 1014.7
20260509141542 70 339 6.0 12.0 0.00 0.00 0.00 46 1014.8
20260509140042 70 306 5.0 12.0 0.00 0.00 0.00 46 1014.9
20260509134538 71 219 6.0 12.0 0.00 0.00 0.00 45 1015.1
20260509133037 71 277 5.0 16.0 0.00 0.00 0.00 46 1015.2
20260509131534 70 332 5.0 12.0 0.00 0.00 0.00 46 1015.4
20260509130050 71 312 6.0 11.0 0.00 0.00 0.00 45 1015.5
20260509124538 70 260 5.0 8.0 0.00 0.00 0.00 49 1015.5
20260509123032 71 339 4.0 11.0 0.00 0.00 0.00 48 1015.8
20260509121530 71 232 2.0 11.0 0.00 0.00 0.00 49 1016.0
20260509120032 71 309 6.0 11.0 0.00 0.00 0.00 47 1016.1
20260509114524 71 15 4.0 11.0 0.00 0.00 0.00 48 1016.3
20260509113023 71 314 4.0 10.0 0.00 0.00 0.00 51 1016.4
20260509111519 70 279 6.0 11.0 0.00 0.00 0.00 49 1016.6
20260509110020 70 311 8.0 13.0 0.00 0.00 0.00 50 1016.9
20260509104514 69 242 5.0 12.0 0.00 0.00 0.00 52 1017.0
20260509103015 68 337 5.0 13.0 0.00 0.00 0.00 54 1017.0
20260509101509 68 325 7.0 13.0 0.00 0.00 0.00 55 1017.2
20260509100007 67 261 7.0 13.0 0.00 0.00 0.00 53 1017.4
20260509094507 67 306 9.0 16.0 0.00 0.00 0.00 56 1017.3
20260509093004 67 294 8.0 14.0 0.00 0.00 0.00 54 1017.3
20260509091501 66 278 6.0 12.0 0.00 0.00 0.00 56 1017.4
20260509090058 65 263 8.0 13.0 0.00 0.00 0.00 58 1017.5
20260509084555 64 275 7.0 13.0 0.00 0.00 0.00 59 1017.5
20260509083051 63 324 8.0 13.0 0.00 0.00 0.00 60 1017.6
20260509081552 62 296 9.0 14.0 0.00 0.00 0.00 61 1017.8
20260509080046 62 265 6.0 12.0 0.00 0.00 0.00 63 1017.8
20260509074541 60 310 5.0 12.0 0.00 0.00 0.00 66 1017.8
20260509073039 59 275 6.0 12.0 0.00 0.00 0.00 66 1017.6
20260509071534 57 272 4.0 9.0 0.00 0.00 0.00 69 1017.8
20260509070030 56 299 9.0 12.0 0.00 0.00 0.00 70 1017.7
20260509064525 54 304 7.0 11.0 0.00 0.00 0.00 73 1017.7
20260509063020 52 285 7.0 13.0 0.00 0.00 0.00 75 1017.6
20260509061518 51 285 5.0 11.0 0.00 0.00 0.00 79 1017.5
20260509060018 49 268 6.0 10.0 0.00 0.00 0.00 81 1017.6
20260509054517 48 269 5.0 10.0 0.00 0.00 0.00 83 1017.5
20260509053116 47 279 6.0 9.0 0.00 0.00 0.00 83 1017.3
20260509051515 46 258 6.0 10.0 0.00 0.00 0.00 84 1017.3
20260509050015 46 271 6.0 11.0 0.00 0.00 0.00 84 1017.2
20260509044512 45 269 7.0 11.0 0.00 0.00 0.00 84 1017.1
20260509043009 45 269 5.0 10.0 0.00 0.00 0.00 84 1016.9
20260509041508 45 268 6.0 10.0 0.00 0.00 0.00 84 1016.9
20260509040005 46 265 6.0 10.0 0.00 0.00 0.00 84 1017.0
20260509034501 46 271 5.0 10.0 0.00 0.00 0.00 83 1016.9
20260509033100 46 273 7.0 10.0 0.00 0.00 0.00 83 1017.0
20260509031557 46 260 7.0 10.0 0.00 0.00 0.00 83 1017.0
20260509030056 47 273 6.0 9.0 0.00 0.00 0.00 83 1017.1
20260509024553 47 260 6.0 9.0 0.00 0.00 0.00 83 1017.1
20260509023100 47 272 5.0 8.0 0.00 0.00 0.00 83 1017.1